Location: Bishopstone
(51.0167°N, 1.9000°W)
Time: 23:35:20
(UTC+00:00)

Cosmos 405 Rocket - Pass Details

Date: 16 September 2019
Orbit: 491 x 554 km, 81.3° (Epoch: 17 October)

Event Time Altitude Azimuth Distance (km) Brightness Sun altitude
Exits shadow 19:54:04 30° 107° (ESE) 911 3.3 -15.1°
Maximum altitude 19:54:29 31° 93° (E) 894 3.4 -15.1°
Drops below altitude 10° 19:57:47 10° 31° (NNE) 1,702 5.3 -15.6°
Sets 20:00:04 0° 21° (NNE) 2,595 6.3 -15.9°
